Date_Time,Julian_Date,Latitude,Longitude,Instrument_Depth,Water_Salinity
(yyyy-mm-dd hh:mn:ss UTC),(JD),(+ deg. North),(+ deg. East),(m),(ppt)
1982-09-18 18:00:00 UTC,2445231.250000,29.6650,-93.4789,0037,29.5000
1982-09-18 18:30:00 UTC,2445231.270833,29.6650,-93.4789,0037,28.9000
1982-09-18 19:00:00 UTC,2445231.291667,29.6650,-93.4789,0037,28.3000
1982-09-18 19:30:00 UTC,2445231.312500,29.6650,-93.4789,0037,28.2000
1982-09-18 20:00:00 UTC,2445231.333333,29.6650,-93.4789,0037,28.0000
1982-09-18 20:30:00 UTC,2445231.354167,29.6650,-93.4789,0037,27.6000
1982-09-18 21:00:00 UTC,2445231.375000,29.6650,-93.4789,0037,27.1000
1982-09-18 21:30:00 UTC,2445231.395833,29.6650,-93.4789,0037,26.8000
1982-09-18 22:00:00 UTC,2445231.416667,29.6650,-93.4789,0037,26.7000
1982-09-18 22:30:00 UTC,2445231.437500,29.6650,-93.4789,0037,27.0000
1982-09-18 23:00:00 UTC,2445231.458333,29.6650,-93.4789,0037,27.3000
1982-09-18 23:30:00 UTC,2445231.479167,29.6650,-93.4789,0037,27.3000
1982-09-19 00:00:00 UTC,2445231.500000,29.6650,-93.4789,0037,27.4000
1982-09-19 00:30:00 UTC,2445231.520833,29.6650,-93.4789,0037,27.7000
1982-09-19 01:00:00 UTC,2445231.541667,29.6650,-93.4789,0037,28.2000
1982-09-19 01:30:00 UTC,2445231.562500,29.6650,-93.4789,0037,28.8000
1982-09-19 02:00:00 UTC,2445231.583333,29.6650,-93.4789,0037,29.1000
1982-09-19 02:30:00 UTC,2445231.604167,29.6650,-93.4789,0037,29.1000
1982-09-19 03:00:00 UTC,2445231.625000,29.6650,-93.4789,0037,28.9000
1982-09-19 03:30:00 UTC,2445231.645833,29.6650,-93.4789,0037,28.6000
1982-09-19 04:00:00 UTC,2445231.666667,29.6650,-93.4789,0037,28.3000
1982-09-19 04:30:00 UTC,2445231.687500,29.6650,-93.4789,0037,27.8000
1982-09-19 05:00:00 UTC,2445231.708333,29.6650,-93.4789,0037,27.4000
1982-09-19 05:30:00 UTC,2445231.729167,29.6650,-93.4789,0037,27.7000
1982-09-19 06:00:00 UTC,2445231.750000,29.6650,-93.4789,0037,28.2000
1982-09-19 06:30:00 UTC,2445231.770833,29.6650,-93.4789,0037,28.3000
1982-09-19 07:00:00 UTC,2445231.791667,29.6650,-93.4789,0037,28.5000
1982-09-19 07:30:00 UTC,2445231.812500,29.6650,-93.4789,0037,28.5000
1982-09-19 08:00:00 UTC,2445231.833333,29.6650,-93.4789,0037,28.2000
1982-09-19 08:30:00 UTC,2445231.854167,29.6650,-93.4789,0037,27.8000
1982-09-19 09:00:00 UTC,2445231.875000,29.6650,-93.4789,0037,27.7000
1982-09-19 09:30:00 UTC,2445231.895833,29.6650,-93.4789,0037,27.7000
1982-09-19 10:00:00 UTC,2445231.916667,29.6650,-93.4789,0037,27.9000
1982-09-19 10:30:00 UTC,2445231.937500,29.6650,-93.4789,0037,28.3000
1982-09-19 11:00:00 UTC,2445231.958333,29.6650,-93.4789,0037,28.9000
1982-09-19 11:30:00 UTC,2445231.979167,29.6650,-93.4789,0037,29.3000
1982-09-19 12:00:00 UTC,2445232.000000,29.6650,-93.4789,0037,29.6000
1982-09-19 12:30:00 UTC,2445232.020833,29.6650,-93.4789,0037,29.8000
1982-09-19 13:00:00 UTC,2445232.041667,29.6650,-93.4789,0037,29.9000
1982-09-19 13:30:00 UTC,2445232.062500,29.6650,-93.4789,0037,29.9000
1982-09-19 14:00:00 UTC,2445232.083333,29.6650,-93.4789,0037,29.7000
1982-09-19 14:30:00 UTC,2445232.104167,29.6650,-93.4789,0037,29.6000
1982-09-19 15:00:00 UTC,2445232.125000,29.6650,-93.4789,0037,29.3000
1982-09-19 15:30:00 UTC,2445232.145833,29.6650,-93.4789,0037,28.8000
1982-09-19 16:00:00 UTC,2445232.166667,29.6650,-93.4789,0037,28.5000
1982-09-19 16:30:00 UTC,2445232.187500,29.6650,-93.4789,0037,28.8000
1982-09-19 17:00:00 UTC,2445232.208333,29.6650,-93.4789,0037,29.4000
1982-09-19 17:30:00 UTC,2445232.229167,29.6650,-93.4789,0037,29.9000
1982-09-19 18:00:00 UTC,2445232.250000,29.6650,-93.4789,0037,30.2000
1982-09-19 18:30:00 UTC,2445232.270833,29.6650,-93.4789,0037,30.3000
1982-09-19 19:00:00 UTC,2445232.291667,29.6650,-93.4789,0037,30.3000
1982-09-19 19:30:00 UTC,2445232.312500,29.6650,-93.4789,0037,30.3000
1982-09-19 20:00:00 UTC,2445232.333333,29.6650,-93.4789,0037,30.3000
1982-09-19 20:30:00 UTC,2445232.354167,29.6650,-93.4789,0037,30.0000
1982-09-19 21:00:00 UTC,2445232.375000,29.6650,-93.4789,0037,29.3000
1982-09-19 21:30:00 UTC,2445232.395833,29.6650,-93.4789,0037,28.8000
1982-09-19 22:00:00 UTC,2445232.416667,29.6650,-93.4789,0037,28.5000
1982-09-19 22:30:00 UTC,2445232.437500,29.6650,-93.4789,0037,28.4000
1982-09-19 23:00:00 UTC,2445232.458333,29.6650,-93.4789,0037,28.2000
1982-09-19 23:30:00 UTC,2445232.479167,29.6650,-93.4789,0037,28.0000
1982-09-20 00:00:00 UTC,2445232.500000,29.6650,-93.4789,0037,27.5000
1982-09-20 00:30:00 UTC,2445232.520833,29.6650,-93.4789,0037,26.7000
1982-09-20 01:00:00 UTC,2445232.541667,29.6650,-93.4789,0037,26.3000
1982-09-20 01:30:00 UTC,2445232.562500,29.6650,-93.4789,0037,26.3000
1982-09-20 02:00:00 UTC,2445232.583333,29.6650,-93.4789,0037,26.2000
1982-09-20 02:30:00 UTC,2445232.604167,29.6650,-93.4789,0037,26.1000
1982-09-20 03:00:00 UTC,2445232.625000,29.6650,-93.4789,0037,26.1000
1982-09-20 03:30:00 UTC,2445232.645833,29.6650,-93.4789,0037,25.5000
1982-09-20 04:00:00 UTC,2445232.666667,29.6650,-93.4789,0037,24.8000
1982-09-20 04:30:00 UTC,2445232.687500,29.6650,-93.4789,0037,24.5000
1982-09-20 05:00:00 UTC,2445232.708333,29.6650,-93.4789,0037,24.5000
1982-09-20 05:30:00 UTC,2445232.729167,29.6650,-93.4789,0037,24.5000
1982-09-20 06:00:00 UTC,2445232.750000,29.6650,-93.4789,0037,24.7000
1982-09-20 06:30:00 UTC,2445232.770833,29.6650,-93.4789,0037,25.1000
1982-09-20 07:00:00 UTC,2445232.791667,29.6650,-93.4789,0037,25.5000
1982-09-20 07:30:00 UTC,2445232.812500,29.6650,-93.4789,0037,25.8000
1982-09-20 08:00:00 UTC,2445232.833333,29.6650,-93.4789,0037,25.7000
1982-09-20 08:30:00 UTC,2445232.854167,29.6650,-93.4789,0037,25.8000
1982-09-20 09:00:00 UTC,2445232.875000,29.6650,-93.4789,0037,26.2000
1982-09-20 09:30:00 UTC,2445232.895833,29.6650,-93.4789,0037,26.8000
1982-09-20 10:00:00 UTC,2445232.916667,29.6650,-93.4789,0037,27.1000
1982-09-20 10:30:00 UTC,2445232.937500,29.6650,-93.4789,0037,27.3000
1982-09-20 11:00:00 UTC,2445232.958333,29.6650,-93.4789,0037,27.8000
1982-09-20 11:30:00 UTC,2445232.979167,29.6650,-93.4789,0037,28.2000
1982-09-20 12:00:00 UTC,2445233.000000,29.6650,-93.4789,0037,28.2000
1982-09-20 12:30:00 UTC,2445233.020833,29.6650,-93.4789,0037,27.9000
1982-09-20 13:00:00 UTC,2445233.041667,29.6650,-93.4789,0037,27.5000
1982-09-20 13:30:00 UTC,2445233.062500,29.6650,-93.4789,0037,27.2000
1982-09-20 14:00:00 UTC,2445233.083333,29.6650,-93.4789,0037,26.8000
1982-09-20 14:30:00 UTC,2445233.104167,29.6650,-93.4789,0037,26.6000
1982-09-20 15:00:00 UTC,2445233.125000,29.6650,-93.4789,0037,26.6000
1982-09-20 15:30:00 UTC,2445233.145833,29.6650,-93.4789,0037,26.8000
1982-09-20 16:00:00 UTC,2445233.166667,29.6650,-93.4789,0037,27.2000
1982-09-20 16:30:00 UTC,2445233.187500,29.6650,-93.4789,0037,27.7000
1982-09-20 17:00:00 UTC,2445233.208333,29.6650,-93.4789,0037,28.1000
1982-09-20 17:30:00 UTC,2445233.229167,29.6650,-93.4789,0037,28.6000
1982-09-20 18:00:00 UTC,2445233.250000,29.6650,-93.4789,0037,29.0000
1982-09-20 18:30:00 UTC,2445233.270833,29.6650,-93.4789,0037,29.0000
1982-09-20 19:00:00 UTC,2445233.291667,29.6650,-93.4789,0037,28.8000
1982-09-20 19:30:00 UTC,2445233.312500,29.6650,-93.4789,0037,28.6000
1982-09-20 20:00:00 UTC,2445233.333333,29.6650,-93.4789,0037,28.6000
1982-09-20 20:30:00 UTC,2445233.354167,29.6650,-93.4789,0037,28.5000
1982-09-20 21:00:00 UTC,2445233.375000,29.6650,-93.4789,0037,28.5000
1982-09-20 21:30:00 UTC,2445233.395833,29.6650,-93.4789,0037,28.2000
1982-09-20 22:00:00 UTC,2445233.416667,29.6650,-93.4789,0037,27.3000
1982-09-20 22:30:00 UTC,2445233.437500,29.6650,-93.4789,0037,26.7000
1982-09-20 23:00:00 UTC,2445233.458333,29.6650,-93.4789,0037,26.9000
1982-09-20 23:30:00 UTC,2445233.479167,29.6650,-93.4789,0037,26.5000
1982-09-21 00:00:00 UTC,2445233.500000,29.6650,-93.4789,0037,26.2000
1982-09-21 00:30:00 UTC,2445233.520833,29.6650,-93.4789,0037,27.0000
1982-09-21 01:00:00 UTC,2445233.541667,29.6650,-93.4789,0037,28.1000
1982-09-21 01:30:00 UTC,2445233.562500,29.6650,-93.4789,0037,28.7000
1982-09-21 02:00:00 UTC,2445233.583333,29.6650,-93.4789,0037,29.0000
1982-09-21 02:30:00 UTC,2445233.604167,29.6650,-93.4789,0037,29.0000
1982-09-21 03:00:00 UTC,2445233.625000,29.6650,-93.4789,0037,29.1000
1982-09-21 03:30:00 UTC,2445233.645833,29.6650,-93.4789,0037,29.0000
1982-09-21 04:00:00 UTC,2445233.666667,29.6650,-93.4789,0037,28.8000
1982-09-21 04:30:00 UTC,2445233.687500,29.6650,-93.4789,0037,28.5000
1982-09-21 05:00:00 UTC,2445233.708333,29.6650,-93.4789,0037,28.3000
1982-09-21 05:30:00 UTC,2445233.729167,29.6650,-93.4789,0037,28.3000
1982-09-21 06:00:00 UTC,2445233.750000,29.6650,-93.4789,0037,28.3000
1982-09-21 06:30:00 UTC,2445233.770833,29.6650,-93.4789,0037,28.2000
1982-09-21 07:00:00 UTC,2445233.791667,29.6650,-93.4789,0037,26.8000
1982-09-21 07:30:00 UTC,2445233.812500,29.6650,-93.4789,0037,24.7000
1982-09-21 08:00:00 UTC,2445233.833333,29.6650,-93.4789,0037,23.6000
1982-09-21 08:30:00 UTC,2445233.854167,29.6650,-93.4789,0037,23.4000
1982-09-21 09:00:00 UTC,2445233.875000,29.6650,-93.4789,0037,23.3000
1982-09-21 09:30:00 UTC,2445233.895833,29.6650,-93.4789,0037,23.2000
1982-09-21 10:00:00 UTC,2445233.916667,29.6650,-93.4789,0037,23.2000
1982-09-21 10:30:00 UTC,2445233.937500,29.6650,-93.4789,0037,23.2000
1982-09-21 11:00:00 UTC,2445233.958333,29.6650,-93.4789,0037,23.2000
1982-09-21 11:30:00 UTC,2445233.979167,29.6650,-93.4789,0037,23.4000
1982-09-21 12:00:00 UTC,2445234.000000,29.6650,-93.4789,0037,24.4000
1982-09-21 12:30:00 UTC,2445234.020833,29.6650,-93.4789,0037,25.8000
1982-09-21 13:00:00 UTC,2445234.041667,29.6650,-93.4789,0037,26.4000
1982-09-21 13:30:00 UTC,2445234.062500,29.6650,-93.4789,0037,26.0000
1982-09-21 14:00:00 UTC,2445234.083333,29.6650,-93.4789,0037,25.3000
1982-09-21 14:30:00 UTC,2445234.104167,29.6650,-93.4789,0037,24.8000
1982-09-21 15:00:00 UTC,2445234.125000,29.6650,-93.4789,0037,24.7000
1982-09-21 15:30:00 UTC,2445234.145833,29.6650,-93.4789,0037,24.6000
1982-09-21 16:00:00 UTC,2445234.166667,29.6650,-93.4789,0037,24.5000
1982-09-21 16:30:00 UTC,2445234.187500,29.6650,-93.4789,0037,24.5000
1982-09-21 17:00:00 UTC,2445234.208333,29.6650,-93.4789,0037,24.4000
1982-09-21 17:30:00 UTC,2445234.229167,29.6650,-93.4789,0037,24.3000
1982-09-21 18:00:00 UTC,2445234.250000,29.6650,-93.4789,0037,24.4000
1982-09-21 18:30:00 UTC,2445234.270833,29.6650,-93.4789,0037,24.4000
1982-09-21 19:00:00 UTC,2445234.291667,29.6650,-93.4789,0037,24.3000
1982-09-21 19:30:00 UTC,2445234.312500,29.6650,-93.4789,0037,24.3000
1982-09-21 20:00:00 UTC,2445234.333333,29.6650,-93.4789,0037,24.5000
1982-09-21 20:30:00 UTC,2445234.354167,29.6650,-93.4789,0037,24.7000
1982-09-21 21:00:00 UTC,2445234.375000,29.6650,-93.4789,0037,24.8000
1982-09-21 21:30:00 UTC,2445234.395833,29.6650,-93.4789,0037,24.9000
1982-09-21 22:00:00 UTC,2445234.416667,29.6650,-93.4789,0037,25.0000
1982-09-21 22:30:00 UTC,2445234.437500,29.6650,-93.4789,0037,25.3000
1982-09-21 23:00:00 UTC,2445234.458333,29.6650,-93.4789,0037,25.4000
1982-09-21 23:30:00 UTC,2445234.479167,29.6650,-93.4789,0037,25.4000
1982-09-22 00:00:00 UTC,2445234.500000,29.6650,-93.4789,0037,25.4000
1982-09-22 00:30:00 UTC,2445234.520833,29.6650,-93.4789,0037,25.3000
1982-09-22 01:00:00 UTC,2445234.541667,29.6650,-93.4789,0037,25.3000
1982-09-22 01:30:00 UTC,2445234.562500,29.6650,-93.4789,0037,25.2000
1982-09-22 02:00:00 UTC,2445234.583333,29.6650,-93.4789,0037,25.2000
1982-09-22 02:30:00 UTC,2445234.604167,29.6650,-93.4789,0037,25.3000
1982-09-22 03:00:00 UTC,2445234.625000,29.6650,-93.4789,0037,25.3000
1982-09-22 03:30:00 UTC,2445234.645833,29.6650,-93.4789,0037,25.2000
1982-09-22 04:00:00 UTC,2445234.666667,29.6650,-93.4789,0037,25.0000
1982-09-22 04:30:00 UTC,2445234.687500,29.6650,-93.4789,0037,24.9000
1982-09-22 05:00:00 UTC,2445234.708333,29.6650,-93.4789,0037,24.9000
1982-09-22 05:30:00 UTC,2445234.729167,29.6650,-93.4789,0037,24.9000
1982-09-22 06:00:00 UTC,2445234.750000,29.6650,-93.4789,0037,24.7000
1982-09-22 06:30:00 UTC,2445234.770833,29.6650,-93.4789,0037,24.5000
1982-09-22 07:00:00 UTC,2445234.791667,29.6650,-93.4789,0037,24.3000
1982-09-22 07:30:00 UTC,2445234.812500,29.6650,-93.4789,0037,24.2000
1982-09-22 08:00:00 UTC,2445234.833333,29.6650,-93.4789,0037,24.2000
1982-09-22 08:30:00 UTC,2445234.854167,29.6650,-93.4789,0037,24.2000
1982-09-22 09:00:00 UTC,2445234.875000,29.6650,-93.4789,0037,24.2000
1982-09-22 09:30:00 UTC,2445234.895833,29.6650,-93.4789,0037,24.2000
1982-09-22 10:00:00 UTC,2445234.916667,29.6650,-93.4789,0037,24.2000
1982-09-22 10:30:00 UTC,2445234.937500,29.6650,-93.4789,0037,24.3000
1982-09-22 11:00:00 UTC,2445234.958333,29.6650,-93.4789,0037,24.2000
1982-09-22 11:30:00 UTC,2445234.979167,29.6650,-93.4789,0037,24.2000
1982-09-22 12:00:00 UTC,2445235.000000,29.6650,-93.4789,0037,24.0000
1982-09-22 12:30:00 UTC,2445235.020833,29.6650,-93.4789,0037,24.0000
1982-09-22 13:00:00 UTC,2445235.041667,29.6650,-93.4789,0037,24.0000
1982-09-22 13:30:00 UTC,2445235.062500,29.6650,-93.4789,0037,24.1000
1982-09-22 14:00:00 UTC,2445235.083333,29.6650,-93.4789,0037,24.0000
1982-09-22 14:30:00 UTC,2445235.104167,29.6650,-93.4789,0037,24.0000
1982-09-22 15:00:00 UTC,2445235.125000,29.6650,-93.4789,0037,23.9000
1982-09-22 15:30:00 UTC,2445235.145833,29.6650,-93.4789,0037,23.9000
1982-09-22 16:00:00 UTC,2445235.166667,29.6650,-93.4789,0037,23.8000
1982-09-22 16:30:00 UTC,2445235.187500,29.6650,-93.4789,0037,23.8000
1982-09-22 17:00:00 UTC,2445235.208333,29.6650,-93.4789,0037,23.9000
1982-09-22 17:30:00 UTC,2445235.229167,29.6650,-93.4789,0037,23.9000
1982-09-22 18:00:00 UTC,2445235.250000,29.6650,-93.4789,0037,23.9000
1982-09-22 18:30:00 UTC,2445235.270833,29.6650,-93.4789,0037,23.8000
1982-09-22 19:00:00 UTC,2445235.291667,29.6650,-93.4789,0037,23.8000
1982-09-22 19:30:00 UTC,2445235.312500,29.6650,-93.4789,0037,23.8000
1982-09-22 20:00:00 UTC,2445235.333333,29.6650,-93.4789,0037,23.8000
1982-09-22 20:30:00 UTC,2445235.354167,29.6650,-93.4789,0037,23.8000
1982-09-22 21:00:00 UTC,2445235.375000,29.6650,-93.4789,0037,23.8000
1982-09-22 21:30:00 UTC,2445235.395833,29.6650,-93.4789,0037,23.8000
1982-09-22 22:00:00 UTC,2445235.416667,29.6650,-93.4789,0037,23.8000
1982-09-22 22:30:00 UTC,2445235.437500,29.6650,-93.4789,0037,23.8000
1982-09-22 23:00:00 UTC,2445235.458333,29.6650,-93.4789,0037,23.8000
1982-09-22 23:30:00 UTC,2445235.479167,29.6650,-93.4789,0037,24.0000
1982-09-23 00:00:00 UTC,2445235.500000,29.6650,-93.4789,0037,24.2000
1982-09-23 00:30:00 UTC,2445235.520833,29.6650,-93.4789,0037,24.4000
1982-09-23 01:00:00 UTC,2445235.541667,29.6650,-93.4789,0037,24.5000
1982-09-23 01:30:00 UTC,2445235.562500,29.6650,-93.4789,0037,24.5000
1982-09-23 02:00:00 UTC,2445235.583333,29.6650,-93.4789,0037,24.4000
1982-09-23 02:30:00 UTC,2445235.604167,29.6650,-93.4789,0037,24.4000
1982-09-23 03:00:00 UTC,2445235.625000,29.6650,-93.4789,0037,24.3000
1982-09-23 03:30:00 UTC,2445235.645833,29.6650,-93.4789,0037,24.3000
1982-09-23 04:00:00 UTC,2445235.666667,29.6650,-93.4789,0037,24.4000
1982-09-23 04:30:00 UTC,2445235.687500,29.6650,-93.4789,0037,24.4000
1982-09-23 05:00:00 UTC,2445235.708333,29.6650,-93.4789,0037,24.4000
1982-09-23 05:30:00 UTC,2445235.729167,29.6650,-93.4789,0037,24.4000
1982-09-23 06:00:00 UTC,2445235.750000,29.6650,-93.4789,0037,24.3000
1982-09-23 06:30:00 UTC,2445235.770833,29.6650,-93.4789,0037,24.3000
1982-09-23 07:00:00 UTC,2445235.791667,29.6650,-93.4789,0037,24.3000
1982-09-23 07:30:00 UTC,2445235.812500,29.6650,-93.4789,0037,24.2000
1982-09-23 08:00:00 UTC,2445235.833333,29.6650,-93.4789,0037,24.2000
1982-09-23 08:30:00 UTC,2445235.854167,29.6650,-93.4789,0037,24.2000
1982-09-23 09:00:00 UTC,2445235.875000,29.6650,-93.4789,0037,24.2000
1982-09-23 09:30:00 UTC,2445235.895833,29.6650,-93.4789,0037,24.3000
1982-09-23 10:00:00 UTC,2445235.916667,29.6650,-93.4789,0037,24.3000
1982-09-23 10:30:00 UTC,2445235.937500,29.6650,-93.4789,0037,24.4000
1982-09-23 11:00:00 UTC,2445235.958333,29.6650,-93.4789,0037,24.5000
1982-09-23 11:30:00 UTC,2445235.979167,29.6650,-93.4789,0037,24.6000
1982-09-23 12:00:00 UTC,2445236.000000,29.6650,-93.4789,0037,24.7000
1982-09-23 12:30:00 UTC,2445236.020833,29.6650,-93.4789,0037,24.9000
1982-09-23 13:00:00 UTC,2445236.041667,29.6650,-93.4789,0037,25.0000
1982-09-23 13:30:00 UTC,2445236.062500,29.6650,-93.4789,0037,25.1000
1982-09-23 14:00:00 UTC,2445236.083333,29.6650,-93.4789,0037,25.2000
1982-09-23 14:30:00 UTC,2445236.104167,29.6650,-93.4789,0037,25.3000
1982-09-23 15:00:00 UTC,2445236.125000,29.6650,-93.4789,0037,25.4000
1982-09-23 15:30:00 UTC,2445236.145833,29.6650,-93.4789,0037,25.6000
1982-09-23 16:00:00 UTC,2445236.166667,29.6650,-93.4789,0037,25.6000
1982-09-23 16:30:00 UTC,2445236.187500,29.6650,-93.4789,0037,25.7000
1982-09-23 17:00:00 UTC,2445236.208333,29.6650,-93.4789,0037,25.8000
1982-09-23 17:30:00 UTC,2445236.229167,29.6650,-93.4789,0037,25.9000
1982-09-23 18:00:00 UTC,2445236.250000,29.6650,-93.4789,0037,26.1000
1982-09-23 18:30:00 UTC,2445236.270833,29.6650,-93.4789,0037,26.2000
1982-09-23 19:00:00 UTC,2445236.291667,29.6650,-93.4789,0037,26.2000
1982-09-23 19:30:00 UTC,2445236.312500,29.6650,-93.4789,0037,26.1000
1982-09-23 20:00:00 UTC,2445236.333333,29.6650,-93.4789,0037,26.1000
1982-09-23 20:30:00 UTC,2445236.354167,29.6650,-93.4789,0037,26.0000
1982-09-23 21:00:00 UTC,2445236.375000,29.6650,-93.4789,0037,25.9000
1982-09-23 21:30:00 UTC,2445236.395833,29.6650,-93.4789,0037,25.9000
1982-09-23 22:00:00 UTC,2445236.416667,29.6650,-93.4789,0037,25.9000
1982-09-23 22:30:00 UTC,2445236.437500,29.6650,-93.4789,0037,26.0000
1982-09-23 23:00:00 UTC,2445236.458333,29.6650,-93.4789,0037,26.1000
1982-09-23 23:30:00 UTC,2445236.479167,29.6650,-93.4789,0037,26.1000
1982-09-24 00:00:00 UTC,2445236.500000,29.6650,-93.4789,0037,26.1000
1982-09-24 00:30:00 UTC,2445236.520833,29.6650,-93.4789,0037,26.1000
1982-09-24 01:00:00 UTC,2445236.541667,29.6650,-93.4789,0037,26.1000
1982-09-24 01:30:00 UTC,2445236.562500,29.6650,-93.4789,0037,26.2000
1982-09-24 02:00:00 UTC,2445236.583333,29.6650,-93.4789,0037,26.2000
1982-09-24 02:30:00 UTC,2445236.604167,29.6650,-93.4789,0037,26.1000
1982-09-24 03:00:00 UTC,2445236.625000,29.6650,-93.4789,0037,26.1000
1982-09-24 03:30:00 UTC,2445236.645833,29.6650,-93.4789,0037,26.1000
1982-09-24 04:00:00 UTC,2445236.666667,29.6650,-93.4789,0037,26.1000
1982-09-24 04:30:00 UTC,2445236.687500,29.6650,-93.4789,0037,26.1000
1982-09-24 05:00:00 UTC,2445236.708333,29.6650,-93.4789,0037,26.1000
1982-09-24 05:30:00 UTC,2445236.729167,29.6650,-93.4789,0037,26.1000
1982-09-24 06:00:00 UTC,2445236.750000,29.6650,-93.4789,0037,26.1000
1982-09-24 06:30:00 UTC,2445236.770833,29.6650,-93.4789,0037,26.0000
1982-09-24 07:00:00 UTC,2445236.791667,29.6650,-93.4789,0037,26.0000
1982-09-24 07:30:00 UTC,2445236.812500,29.6650,-93.4789,0037,26.1000
1982-09-24 08:00:00 UTC,2445236.833333,29.6650,-93.4789,0037,26.1000
1982-09-24 08:30:00 UTC,2445236.854167,29.6650,-93.4789,0037,26.1000
1982-09-24 09:00:00 UTC,2445236.875000,29.6650,-93.4789,0037,26.2000
1982-09-24 09:30:00 UTC,2445236.895833,29.6650,-93.4789,0037,26.2000
1982-09-24 10:00:00 UTC,2445236.916667,29.6650,-93.4789,0037,26.1000
1982-09-24 10:30:00 UTC,2445236.937500,29.6650,-93.4789,0037,26.1000
1982-09-24 11:00:00 UTC,2445236.958333,29.6650,-93.4789,0037,26.1000
1982-09-24 11:30:00 UTC,2445236.979167,29.6650,-93.4789,0037,26.1000
1982-09-24 12:00:00 UTC,2445237.000000,29.6650,-93.4789,0037,26.2000
1982-09-24 12:30:00 UTC,2445237.020833,29.6650,-93.4789,0037,26.5000
1982-09-24 13:00:00 UTC,2445237.041667,29.6650,-93.4789,0037,26.7000
1982-09-24 13:30:00 UTC,2445237.062500,29.6650,-93.4789,0037,26.7000
1982-09-24 14:00:00 UTC,2445237.083333,29.6650,-93.4789,0037,26.7000
1982-09-24 14:30:00 UTC,2445237.104167,29.6650,-93.4789,0037,26.7000
1982-09-24 15:00:00 UTC,2445237.125000,29.6650,-93.4789,0037,26.8000
1982-09-24 15:30:00 UTC,2445237.145833,29.6650,-93.4789,0037,26.9000
1982-09-24 16:00:00 UTC,2445237.166667,29.6650,-93.4789,0037,26.9000
1982-09-24 16:30:00 UTC,2445237.187500,29.6650,-93.4789,0037,26.9000
1982-09-24 17:00:00 UTC,2445237.208333,29.6650,-93.4789,0037,26.9000
1982-09-24 17:30:00 UTC,2445237.229167,29.6650,-93.4789,0037,26.8000
1982-09-24 18:00:00 UTC,2445237.250000,29.6650,-93.4789,0037,26.7000
1982-09-24 18:30:00 UTC,2445237.270833,29.6650,-93.4789,0037,26.7000
1982-09-24 19:00:00 UTC,2445237.291667,29.6650,-93.4789,0037,26.7000
1982-09-24 19:30:00 UTC,2445237.312500,29.6650,-93.4789,0037,26.7000
1982-09-24 20:00:00 UTC,2445237.333333,29.6650,-93.4789,0037,26.7000
1982-09-24 20:30:00 UTC,2445237.354167,29.6650,-93.4789,0037,26.7000
1982-09-24 21:00:00 UTC,2445237.375000,29.6650,-93.4789,0037,26.7000
1982-09-24 21:30:00 UTC,2445237.395833,29.6650,-93.4789,0037,26.8000
1982-09-24 22:00:00 UTC,2445237.416667,29.6650,-93.4789,0037,26.8000
1982-09-24 22:30:00 UTC,2445237.437500,29.6650,-93.4789,0037,26.7000
1982-09-24 23:00:00 UTC,2445237.458333,29.6650,-93.4789,0037,26.7000
1982-09-24 23:30:00 UTC,2445237.479167,29.6650,-93.4789,0037,26.7000
1982-09-25 00:00:00 UTC,2445237.500000,29.6650,-93.4789,0037,26.7000
1982-09-25 00:30:00 UTC,2445237.520833,29.6650,-93.4789,0037,26.7000
1982-09-25 01:00:00 UTC,2445237.541667,29.6650,-93.4789,0037,26.6000
1982-09-25 01:30:00 UTC,2445237.562500,29.6650,-93.4789,0037,26.6000
1982-09-25 02:00:00 UTC,2445237.583333,29.6650,-93.4789,0037,26.6000
1982-09-25 02:30:00 UTC,2445237.604167,29.6650,-93.4789,0037,26.6000
1982-09-25 03:00:00 UTC,2445237.625000,29.6650,-93.4789,0037,26.6000
1982-09-25 03:30:00 UTC,2445237.645833,29.6650,-93.4789,0037,26.6000
1982-09-25 04:00:00 UTC,2445237.666667,29.6650,-93.4789,0037,26.6000
1982-09-25 04:30:00 UTC,2445237.687500,29.6650,-93.4789,0037,26.7000
1982-09-25 05:00:00 UTC,2445237.708333,29.6650,-93.4789,0037,26.7000
1982-09-25 05:30:00 UTC,2445237.729167,29.6650,-93.4789,0037,26.7000
1982-09-25 06:00:00 UTC,2445237.750000,29.6650,-93.4789,0037,26.7000
1982-09-25 06:30:00 UTC,2445237.770833,29.6650,-93.4789,0037,26.7000
1982-09-25 07:00:00 UTC,2445237.791667,29.6650,-93.4789,0037,26.7000
1982-09-25 07:30:00 UTC,2445237.812500,29.6650,-93.4789,0037,26.6000
1982-09-25 08:00:00 UTC,2445237.833333,29.6650,-93.4789,0037,26.5000
1982-09-25 08:30:00 UTC,2445237.854167,29.6650,-93.4789,0037,26.5000
1982-09-25 09:00:00 UTC,2445237.875000,29.6650,-93.4789,0037,26.6000
1982-09-25 09:30:00 UTC,2445237.895833,29.6650,-93.4789,0037,26.8000
1982-09-25 10:00:00 UTC,2445237.916667,29.6650,-93.4789,0037,27.0000
1982-09-25 10:30:00 UTC,2445237.937500,29.6650,-93.4789,0037,27.1000
1982-09-25 11:00:00 UTC,2445237.958333,29.6650,-93.4789,0037,27.1000
1982-09-25 11:30:00 UTC,2445237.979167,29.6650,-93.4789,0037,27.2000
1982-09-25 12:00:00 UTC,2445238.000000,29.6650,-93.4789,0037,27.3000
1982-09-25 12:30:00 UTC,2445238.020833,29.6650,-93.4789,0037,27.3000
1982-09-25 13:00:00 UTC,2445238.041667,29.6650,-93.4789,0037,27.4000
1982-09-25 13:30:00 UTC,2445238.062500,29.6650,-93.4789,0037,27.4000
1982-09-25 14:00:00 UTC,2445238.083333,29.6650,-93.4789,0037,27.4000
1982-09-25 14:30:00 UTC,2445238.104167,29.6650,-93.4789,0037,27.4000
1982-09-25 15:00:00 UTC,2445238.125000,29.6650,-93.4789,0037,27.4000
1982-09-25 15:30:00 UTC,2445238.145833,29.6650,-93.4789,0037,27.4000
1982-09-25 16:00:00 UTC,2445238.166667,29.6650,-93.4789,0037,27.5000
1982-09-25 16:30:00 UTC,2445238.187500,29.6650,-93.4789,0037,27.5000
1982-09-25 17:00:00 UTC,2445238.208333,29.6650,-93.4789,0037,27.5000
1982-09-25 17:30:00 UTC,2445238.229167,29.6650,-93.4789,0037,27.5000
1982-09-25 18:00:00 UTC,2445238.250000,29.6650,-93.4789,0037,27.5000
1982-09-25 18:30:00 UTC,2445238.270833,29.6650,-93.4789,0037,27.6000
1982-09-25 19:00:00 UTC,2445238.291667,29.6650,-93.4789,0037,27.6000
1982-09-25 19:30:00 UTC,2445238.312500,29.6650,-93.4789,0037,27.6000
1982-09-25 20:00:00 UTC,2445238.333333,29.6650,-93.4789,0037,27.6000
1982-09-25 20:30:00 UTC,2445238.354167,29.6650,-93.4789,0037,27.6000
1982-09-25 21:00:00 UTC,2445238.375000,29.6650,-93.4789,0037,27.6000
1982-09-25 21:30:00 UTC,2445238.395833,29.6650,-93.4789,0037,27.6000
1982-09-25 22:00:00 UTC,2445238.416667,29.6650,-93.4789,0037,27.7000